Weather in Nizhnyaya Kalinovka

Russia / Oryol Oblast     53°03′17″N   36°13′32″E
temp.,
°C
wind,
m/s
gust,
m/s
humid.,
%
clouds,
%
prec.,
mm/h
press.,
hPa
HPBL,
m
20 january, thu
thu2000:00−13ssw379652 0.0 1017106
03:00−11ssw4109796 0.0 1016183
06:00−10ssw51297100 0.1 1014242
09:00−9ssw61496100 0.1 1013293
12:00−7ssw71594100 0.1 1012452
15:00−5s71694100 0.1 1009565
18:00−5s81692100 0.1 1007559
21:00−4ssw81594100 0.2 1006691
21 january, fri
fri2100:00−4s71495100 0.5 1005626
03:00−4s61396100 2.1 1003591
06:00−4s61296100 1.8 1001552
09:00−4s51096100 3.5 1000436
12:00−3sw6994100 0.9 999668
15:00−4ssw6119060 0.9 999587
18:00−6s61391100 0.0 999437
21:00−4s71495100 0.4 998773
22 january, sat
sat2200:00−4ssw71396100 0.8 999628
03:00−4sw81494100 1.6 1001704
06:00−5ssw61195100 0.5 1002464
09:00−6s51094100 0.9 1005336
12:00−5s599593 0.3 1007409
15:00−5s479589 0.6 1009452
18:00−7sse489692 0.2 1012187
21:00−12se339874 0.3 101431
23 january, sun
sun2300:00−13se339888 0.1 101738
03:00−15ese229991 0.1 101927
06:00−17ese22100100 0.0 102125
09:00−19e22100100 0.1 102525
12:00−11ene249677 0.0 1027106
15:00−10ne369589 0.0 1028167
18:00−13ne389757 0.0 1030108
21:00−14nne4119698 0.0 1031181
24 january, mon
mon2400:00−14nne5129599 0.0 1031184
03:00−13nne61494100 0.0 1030249
06:00−10nne71692100 0.0 1029386
09:00−9nne61495100 0.4 1030433
12:00−8ne6129388 0.6 1030388
15:00−8ne5109478 0.6 1029342
18:00−12ne389649 0.0 1030117
21:00−15nne359861 0.0 103069